Regional Weather Roundup
Issued by NWS Bismarck, ND

Home | Current Version | Previous Version | Text Only | Print | Product List | Glossary On
Versions: 1 2 3 4 5 6 7 8 9 10 11 12 13 14 15 16 17 18 19 20 21 22 23 24 25 26 27 28 29 30 31 32 33 34 35 36 37 38 39 40 41 42 43 44 45 46 47 48 49 50
000
ASUS43 KBIS 272110
RWRBIS

NWR BROADCAST TEXT
NATIONAL WEATHER SERVICE BISMARCK ND
400 PM CDT FRI MAR 27 2015

NOTE: "FAIR" INDICATES FEW OR NO CLOUDS BELOW 12,000 FEET WITH NO
SIGNIFICANT WEATHER AND/OR OBSTRUCTIONS TO VISIBILITY.


CITY           SKY/WX    TMP DP  RH WIND       PRES   REMARKS
WILLISTON      PTSUNNY   62  36  37 NW17G23   29.89F
MINOT          PTSUNNY   51  37  58 W10       29.84F
MINOT AFB      PTSUNNY   51  43  73 NW13      29.84F
BISMARCK       CLOUDY    48  32  53 S9        29.90F
DICKINSON      PTSUNNY   65  34  31 NW22G30   29.86F
GARRISON         N/A     52  39  61 NW14      29.86F
HETTINGER ARPT PTSUNNY   65  33  30 NW21G30   29.89F
JAMESTOWN      LGT SNOW  28  25  88 S16       29.99F VSB 1   WCI  16
BEACH          FAIR      64  34  32 NW20G25   29.92S
CARRINGTON     MIX PCPN  27  27 100 S17G23    29.98S WCI  14
CROSBY         FAIR      55  37  50 N16G23    29.90S
HARVEY         CLOUDY    32  30  93 S10       29.93F
HAZEN          MOCLDY    55  34  44 NW18G26   29.87F
LINTON         MOCLDY    41  36  81 S16       29.92F
MANDAN         CLOUDY    48  34  57 SW7       29.89F
OAKES          LGT SNOW  28  28 100 S13       30.05F WCI  18
RUGBY          CLOUDY    32  28  86 S15       29.92F
WATFORD CITY   FAIR      57  36  44 NW14G20   29.87F
$$

CITY           SKY/WX    TMP DP  RH WIND       PRES   REMARKS
GRAND FORKS    LGT SNOW  32  21  64 S12G18    30.08F
GRAND FORKS AF MIX PCPN  32  23  69 S9        30.07F
DEVILS LAKE    CLOUDY    28  25  86 S16       29.97F WCI  17
FARGO          CLOUDY    37   6  27 S10       30.08F
CAVALIER       MIX PCPN  28  27  93 S15       30.07S WCI  17
GWINNER        MOCLDY    32  27  80 S14         N/A
ROLLA          CLOUDY    27  27 100 S15G21    29.94F WCI  15
WALHALLA       MIX PCPN  28  28 100 SE13G18   30.05F WCI  18
$$

CITY           SKY/WX    TMP DP  RH WIND       PRES   REMARKS
ABERDEEN       CLOUDY    30  26  85 S16       30.05F FOG     WCI  19
MOBRIDGE       PTSUNNY   47  34  60 S13       29.91F
BUFFALO          N/A     67  34  29 NW23G31   29.85F
RAPID CITY     PTSUNNY   67  36  31 N24G35    29.93F
GLASGOW        SUNNY     69  37  30 NW14G21   29.90F
SIDNEY         PTSUNNY   64  36  34 NW8       29.91S
WOLF POINT     MOSUNNY   69  36  29 W14G21    29.89F
GLENDIVE         N/A     66  37  34 NW10      29.91F
MILES CITY     MOSUNNY   71  36  27 NW20      29.92F
BAKER          MOSUNNY   67  36  31 NW18G25   29.92F
$$

CITY           SKY/WX    TMP DP  RH WIND       PRES   REMARKS
BILLINGS       MOSUNNY   75  25  15 W17G32    29.97F
GREAT FALLS    MOSUNNY   74  21  13 W23G31    29.98F
REGINA         CLOUDY    52  41  66 N14       29.89S
$$




USA.gov is the U.S. government's official web portal to all federal, state and local government web resources and services.